TimeCST,TemperatureF,Dew PointF,Humidity,Sea Level PressureIn,VisibilityMPH,Wind Direction,Wind SpeedMPH,Gust SpeedMPH,PrecipitationIn,Events,Conditions,WindDirDegrees,DateUTC
12:15 AM,23.9,20.8,88,30.20,10.0,West,6.9,-,N/A,,Overcast,280,2013-12-15 06:15:00
12:35 AM,23.4,20.3,88,30.20,10.0,WNW,5.8,-,N/A,,Mostly Cloudy,290,2013-12-15 06:35:00
12:55 AM,22.3,19.4,89,30.20,10.0,West,4.6,-,N/A,,Scattered Clouds,280,2013-12-15 06:55:00
1:15 AM,21.4,18.7,89,30.19,10.0,West,3.5,-,N/A,,Clear,270,2013-12-15 07:15:00
1:35 AM,21.0,18.3,89,30.18,10.0,Calm,Calm,-,N/A,,Clear,0,2013-12-15 07:35:00
1:55 AM,20.3,18.3,92,30.19,7.0,Calm,Calm,-,N/A,,Clear,0,2013-12-15 07:55:00
2:15 AM,19.9,18.1,93,30.19,7.0,Calm,Calm,-,N/A,,Clear,0,2013-12-15 08:15:00
2:35 AM,19.2,17.8,94,30.19,7.0,SW,3.5,-,N/A,,Clear,230,2013-12-15 08:35:00
2:55 AM,18.9,17.6,95,30.19,7.0,Calm,Calm,-,N/A,,Clear,0,2013-12-15 08:55:00
3:15 AM,18.9,17.4,94,30.20,7.0,Calm,Calm,-,N/A,,Clear,0,2013-12-15 09:15:00
3:35 AM,19.0,17.6,94,30.19,7.0,Calm,Calm,-,N/A,,Clear,0,2013-12-15 09:35:00
3:55 AM,18.9,17.6,95,30.19,7.0,East,3.5,-,N/A,,Clear,90,2013-12-15 09:55:00
4:15 AM,18.7,17.4,95,30.18,7.0,SW,3.5,-,N/A,,Clear,230,2013-12-15 10:15:00
4:35 AM,18.5,17.2,95,30.18,5.0,Calm,Calm,-,N/A,,Clear,0,2013-12-15 10:35:00
4:55 AM,18.5,17.4,96,30.18,5.0,Calm,Calm,-,N/A,,Scattered Clouds,0,2013-12-15 10:55:00
5:15 AM,18.7,17.6,96,30.17,7.0,Calm,Calm,-,N/A,,Mostly Cloudy,0,2013-12-15 11:15:00
5:35 AM,18.9,17.6,95,30.17,7.0,WSW,3.5,-,N/A,,Scattered Clouds,240,2013-12-15 11:35:00
5:55 AM,18.9,17.6,95,30.17,7.0,SSW,3.5,-,N/A,,Scattered Clouds,210,2013-12-15 11:55:00
6:15 AM,19.2,17.8,94,30.17,7.0,Calm,Calm,-,N/A,,Overcast,0,2013-12-15 12:15:00
6:35 AM,18.7,17.6,96,30.17,7.0,Calm,Calm,-,N/A,,Overcast,0,2013-12-15 12:35:00
6:55 AM,18.9,17.8,96,30.17,7.0,Calm,Calm,-,N/A,,Scattered Clouds,0,2013-12-15 12:55:00
7:15 AM,18.1,17.2,96,30.17,5.0,Calm,Calm,-,N/A,,Clear,0,2013-12-15 13:15:00
7:35 AM,17.6,16.7,96,30.17,4.0,SSE,3.5,-,N/A,,Clear,160,2013-12-15 13:35:00
7:55 AM,17.6,16.7,96,30.16,4.0,South,4.6,-,N/A,,Clear,170,2013-12-15 13:55:00
8:15 AM,18.5,17.4,96,30.16,5.0,South,3.5,-,N/A,,Clear,180,2013-12-15 14:15:00
8:35 AM,19.9,18.5,94,30.16,5.0,South,4.6,-,N/A,,Clear,180,2013-12-15 14:35:00
8:55 AM,21.6,19.4,91,30.15,5.0,South,4.6,-,N/A,,Clear,170,2013-12-15 14:55:00
9:15 AM,22.5,19.9,90,30.15,5.0,South,5.8,-,N/A,,Clear,180,2013-12-15 15:15:00
9:35 AM,24.4,21.4,88,30.14,7.0,South,4.6,-,N/A,,Clear,180,2013-12-15 15:35:00
9:55 AM,25.7,21.9,86,30.13,7.0,South,6.9,-,N/A,,Scattered Clouds,180,2013-12-15 15:55:00
10:15 AM,26.4,21.7,82,30.13,7.0,South,6.9,-,N/A,,Clear,190,2013-12-15 16:15:00
10:35 AM,27.9,21.7,78,30.12,7.0,South,6.9,-,N/A,,Mostly Cloudy,180,2013-12-15 16:35:00
10:55 AM,29.5,22.8,76,30.11,7.0,South,5.8,-,N/A,,Overcast,180,2013-12-15 16:55:00
11:15 AM,30.0,23.5,77,30.11,10.0,South,5.8,-,N/A,,Overcast,190,2013-12-15 17:15:00
11:35 AM,30.9,23.9,75,30.11,7.0,Calm,Calm,-,N/A,,Scattered Clouds,0,2013-12-15 17:35:00
11:55 AM,32.0,24.3,73,30.11,7.0,Calm,Calm,-,N/A,,Clear,0,2013-12-15 17:55:00
12:15 PM,32.4,24.3,72,30.09,10.0,Calm,Calm,-,N/A,,Clear,0,2013-12-15 18:15:00
12:35 PM,33.3,24.8,71,30.07,10.0,SE,3.5,-,N/A,,Clear,140,2013-12-15 18:35:00
12:55 PM,33.6,25.7,73,30.06,7.0,SSE,6.9,-,N/A,,Clear,160,2013-12-15 18:55:00
1:15 PM,34.0,26.2,73,30.05,10.0,South,6.9,-,N/A,,Clear,170,2013-12-15 19:15:00
1:35 PM,34.5,27.5,76,30.03,10.0,South,8.1,-,N/A,,Clear,170,2013-12-15 19:35:00
1:55 PM,35.8,28.6,75,30.02,10.0,SSW,4.6,-,N/A,,Clear,200,2013-12-15 19:55:00
2:15 PM,36.1,29.5,77,30.05,10.0,NNW,3.5,-,N/A,,Clear,340,2013-12-15 20:15:00
2:35 PM,36.1,30.0,78,30.05,7.0,North,4.6,-,N/A,,Clear,10,2013-12-15 20:35:00
2:55 PM,35.4,29.7,80,30.05,7.0,Calm,Calm,-,N/A,,Clear,0,2013-12-15 20:55:00
3:15 PM,33.8,29.1,83,30.06,7.0,North,3.5,-,N/A,,Clear,360,2013-12-15 21:15:00
3:35 PM,33.8,29.3,84,30.06,7.0,North,3.5,-,N/A,,Clear,10,2013-12-15 21:35:00
3:55 PM,34.2,29.3,82,30.05,7.0,Calm,Calm,-,N/A,,Clear,0,2013-12-15 21:55:00
4:15 PM,33.3,29.1,85,30.06,7.0,Calm,Calm,-,N/A,,Clear,0,2013-12-15 22:15:00
4:35 PM,32.9,29.7,88,30.05,7.0,Calm,Calm,-,N/A,,Clear,0,2013-12-15 22:35:00
4:55 PM,32.2,29.8,91,30.05,7.0,SE,3.5,-,N/A,,Clear,130,2013-12-15 22:55:00
5:15 PM,32.0,30.2,93,30.02,7.0,SE,8.1,-,N/A,,Clear,130,2013-12-15 23:15:00
5:35 PM,31.5,30.2,95,30.04,7.0,Calm,Calm,-,N/A,,Clear,0,2013-12-15 23:35:00
5:55 PM,31.6,30.4,95,30.03,7.0,Calm,Calm,-,N/A,,Scattered Clouds,0,2013-12-15 23:55:00
6:15 PM,31.3,30.4,96,30.04,5.0,Calm,Calm,-,N/A,,Overcast,0,2013-12-16 00:15:00
6:35 PM,31.8,31.5,99,30.03,5.0,Calm,Calm,-,N/A,,Overcast,0,2013-12-16 00:35:00
6:55 PM,32.5,31.8,97,30.04,7.0,Calm,Calm,-,N/A,,Overcast,0,2013-12-16 00:55:00
7:15 PM,32.5,32.0,98,30.03,5.0,NNE,5.8,-,N/A,,Overcast,30,2013-12-16 01:15:00
7:35 PM,32.4,32.0,99,30.03,4.0,ENE,5.8,-,N/A,,Overcast,70,2013-12-16 01:35:00
7:55 PM,32.7,32.0,97,30.02,5.0,ESE,4.6,-,N/A,,Overcast,110,2013-12-16 01:55:00
8:15 PM,33.3,32.4,96,30.02,7.0,SE,6.9,-,N/A,,Overcast,130,2013-12-16 02:15:00
8:35 PM,33.8,32.4,94,30.02,7.0,ESE,5.8,-,N/A,,Overcast,120,2013-12-16 02:35:00
8:55 PM,33.8,32.4,94,30.01,7.0,ESE,3.5,-,N/A,,Overcast,110,2013-12-16 02:55:00
9:15 PM,33.8,32.4,94,30.00,7.0,ESE,5.8,-,N/A,,Mostly Cloudy,110,2013-12-16 03:15:00
9:35 PM,34.0,32.5,94,30.00,7.0,ESE,3.5,-,N/A,,Scattered Clouds,110,2013-12-16 03:35:00
9:55 PM,34.0,32.4,94,30.00,7.0,Calm,Calm,-,N/A,,Scattered Clouds,0,2013-12-16 03:55:00
10:15 PM,33.3,32.0,95,29.99,7.0,Calm,Calm,-,N/A,,Scattered Clouds,0,2013-12-16 04:15:00
10:35 PM,32.5,31.8,97,29.99,7.0,Calm,Calm,-,N/A,,Mostly Cloudy,0,2013-12-16 04:35:00
10:55 PM,33.3,32.0,95,29.99,7.0,Calm,Calm,-,N/A,,Overcast,0,2013-12-16 04:55:00
11:15 PM,32.7,32.0,97,29.99,5.0,ENE,3.5,-,N/A,,Overcast,60,2013-12-16 05:15:00
11:35 PM,32.9,32.2,97,29.98,7.0,East,4.6,-,N/A,,Overcast,90,2013-12-16 05:35:00
11:55 PM,32.9,32.2,97,29.98,5.0,Calm,Calm,-,N/A,,Overcast,0,2013-12-16 05:55:00